Wind_Speed
25 25 22 32 28 11 12 11 11 13 15 15 14 13 12 10 11 15 15 19 20 17 17 15 17 21 20 21 20 21 19 19 18 19 17 18 18 16 15 15 17 17 17 14 14 14 13 13 13
23 24 29 31 22 10 11 10 10 12 13 14 14 14 13 13 14 14 16 16 16 17 15 16 15 17 18 17 17 17 18 17 17 18 17 17 18 16 14 15 16 14 16 14 14 14 14 12 11
23 23 29 18 16 15 14 10 8 11 12 12 12 13 15 13 12 14 15 14 14 13 14 16 15 14 17 17 14 16 17 15 14 17 18 15 16 14 13 14 15 13 13 13 13 14 14 14 12
17 25 31 18 20 17 17 13 8 7 8 11 9 11 14 14 13 12 14 16 14 12 12 13 12 14 11 15 15 14 16 14 13 16 16 14 15 13 12 13 13 12 11 12 12 14 15 14 12
26 34 18 19 22 22 18 14 14 9 6 8 8 9 14 14 12 11 12 12 13 12 12 10 10 11 11 11 14 13 14 14 11 13 13 13 13 12 11 11 11 10 10 11 13 14 17 15 11
30 22 12 16 19 23 21 19 16 13 10 7 7 6 10 14 12 10 10 12 12 11 10 9 10 11 10 10 12 12 11 13 10 10 9 11 12 10 10 9 9 9 9 12 13 14 16 15 10
25 13 13 15 17 21 22 23 17 14 11 11 8 6 7 11 12 10 9 9 13 12 11 10 9 11 12 11 11 10 11 10 8 7 7 8 9 8 7 8 7 7 7 9 11 13 12 13 8
24 16 13 14 13 18 19 19 21 16 14 10 10 7 6 7 11 10 8 9 10 12 11 10 9 11 11 10 9 8 8 8 6 6 5 6 5 3 4 5 4 4 4 6 7 10 10 11 8
13 21 6 9 14 15 15 20 21 20 17 15 9 8 7 5 6 8 7 7 8 10 10 10 10 9 9 8 8 7 5 4 4 4 3 2 3 2 1 2 2 3 4 6 7 9 8 9 10
8 4 7 14 7 14 14 17 15 20 19 18 12 8 5 6 5 7 6 5 6 7 8 7 8 8 8 6 4 3 3 1 0 2 3 4 5 4 2 2 2 2 4 6 9 11 8 9 12
7 3 9 8 9 11 11 13 12 15 20 18 17 11 6 4 5 7 8 7 7 7 6 5 4 4 4 4 3 2 2 2 2 3 3 3 4 3 1 1 2 4 4 5 7 8 9 10 8
7 4 6 7 8 9 10 9 13 14 16 16 17 17 10 7 3 4 7 7 7 7 7 6 5 5 4 4 4 4 3 4 4 3 2 2 2 3 3 3 3 4 4 5 7 9 10 10 10
5 3 3 7 8 7 7 8 10 13 15 17 15 15 15 10 5 2 4 6 7 7 8 8 8 8 6 6 6 6 8 7 7 6 5 5 4 5 5 5 6 7 8 8 8 9 8 9 11
9 5 1 4 8 8 6 6 7 10 12 15 15 13 13 13 10 3 2 5 7 7 8 10 9 8 7 7 6 6 8 8 8 9 8 8 7 6 7 8 9 9 8 7 8 9 9 10 12
7 5 5 3 4 8 6 3 6 10 11 13 15 13 11 12 12 9 1 4 7 9 8 10 10 9 8 8 8 7 5 6 7 8 7 7 7 6 7 8 8 8 8 7 8 9 9 10 10
8 3 13 1 3 9 6 11 5 10 9 9 14 14 11 7 9 11 8 1 3 7 9 8 7 8 9 10 9 8 8 8 6 5 5 6 7 8 9 10 10 10 10 10 11 10 9 10 10
7 17 2 9 6 11 9 10 7 8 4 10 12 16 14 7 8 9 10 8 2 2 5 7 8 8 9 9 9 9 10 10 8 7 7 8 9 10 11 13 13 13 13 12 11 10 9 9 9
17 17 2 4 6 2 7 8 10 8 5 9 10 13 16 13 7 8 9 9 9 4 3 5 5 6 9 8 7 9 9 8 6 7 7 4 3 5 7 8 10 10 9 9 7 7 8 8 8
12 13 7 10 9 5 4 4 13 7 7 8 8 12 12 13 9 9 8 8 8 7 7 4 6 7 4 5 6 7 7 7 6 6 3 1 3 4 6 7 7 8 8 7 6 6 8 8 7
18 10 10 10 15 7 5 4 7 12 8 7 7 14 13 13 14 14 11 9 8 8 6 8 9 6 6 5 5 5 6 5 4 3 1 2 6 8 6 7 8 9 8 7 7 7 8 8 7
19 12 10 12 15 8 8 12 9 15 17 12 14 13 21 17 13 14 13 11 9 8 5 4 6 7 6 4 3 5 5 4 2 1 3 6 8 10 9 8 8 8 7 5 6 8 6 6 8
18 15 16 17 15 3 9 3 10 15 22 20 17 16 19 21 11 12 14 9 9 6 6 5 4 3 2 2 3 4 4 4 5 6 8 11 12 14 12 10 9 8 7 7 7 7 5 8 11
19 14 16 20 12 10 10 8 5 11 9 7 18 15 13 14 13 12 13 10 10 7 5 4 3 3 4 4 5 6 6 6 7 9 10 10 14 19 16 13 13 10 7 5 6 5 4 7 10
18 20 21 13 11 12 11 10 10 6 4 8 12 10 12 11 14 15 16 16 16 11 6 2 1 3 7 9 9 4 3 4 7 9 11 13 17 22 17 15 15 13 9 7 4 4 4 6 9
21 19 14 12 11 13 9 13 12 16 15 20 12 13 9 12 10 18 15 14 14 19 14 8 5 2 5 7 9 8 6 2 3 5 8 12 14 16 21 20 20 17 15 11 9 6 4 3 6
18 18 14 10 7 8 17 11 10 12 13 17 15 14 10 10 14 16 15 13 12 14 17 14 9 2 3 6 5 6 8 7 5 5 12 12 15 19 19 20 21 23 19 16 12 12 9 5 5
11 20 15 13 14 16 13 11 7 5 9 14 15 13 13 12 12 16 18 15 16 15 14 16 13 5 2 5 3 5 6 6 7 9 10 6 11 18 23 19 11 15 20 18 15 14 13 11 9
21 13 14 12 11 9 7 9 13 16 10 8 11 15 8 11 14 11 11 12 15 17 17 14 13 10 0 4 3 3 1 5 6 6 6 4 11 17 19 21 14 7 16 19 17 16 18 18 15
21 14 17 10 12 11 4 10 19 22 13 14 11 10 12 14 8 4 7 12 15 17 16 11 8 8 2 2 3 4 6 8 4 3 4 6 12 15 17 19 18 9 9 15 18 20 19 18 19
12 13 13 6 7 5 13 8 10 19 14 13 12 11 11 9 7 6 7 7 11 12 11 9 6 7 4 2 5 4 6 6 7 7 6 7 10 14 17 17 17 12 9 8 13 17 24 23 19
Wind_Direction
61 61 71 61 48 51 66 69 79 82 77 77 84 87 95 103 114 114 109 111 115 108 109 125 125 121 120 118 119 118 117 119 115 105 104 102 98 89 91 89 79 71 72 62 58 59 60 57 56
66 63 74 68 67 61 70 62 83 79 79 76 77 90 96 102 107 108 108 107 117 118 130 134 131 125 123 121 121 121 118 116 113 110 104 103 97 95 90 86 79 73 70 64 59 55 55 53 54
70 72 66 68 75 77 65 80 84 81 80 83 82 87 100 104 102 107 105 105 107 117 128 132 130 131 132 129 126 121 110 109 113 107 101 102 96 91 89 84 81 75 69 58 55 48 45 39 40
57 53 54 64 70 63 64 64 82 82 86 85 86 93 99 105 105 106 110 113 110 110 121 125 129 130 126 128 126 111 113 118 116 108 100 94 94 94 88 81 76 75 72 62 54 46 36 32 32
61 62 31 58 64 65 63 68 70 79 103 96 88 105 106 102 109 120 116 115 118 121 120 122 126 120 119 119 109 114 115 118 110 97 105 102 96 93 86 83 82 76 65 57 55 40 29 32 43
58 60 36 53 61 63 61 65 69 70 81 109 104 101 105 107 104 113 122 130 124 122 130 139 137 131 126 124 118 116 118 113 115 108 108 104 99 92 81 77 76 72 56 42 48 35 33 31 47
80 76 53 50 57 64 61 57 59 62 72 80 108 102 103 109 109 104 108 120 124 126 130 134 128 123 122 123 123 124 117 113 123 120 116 107 103 103 90 85 79 64 51 36 36 30 25 31 40
78 67 45 52 49 63 64 69 62 62 59 65 79 106 108 118 117 115 118 120 117 116 116 119 120 123 124 131 123 119 111 125 135 140 132 110 122 116 78 78 70 51 38 25 21 30 37 28 34
96 71 62 33 51 62 64 65 65 64 63 57 60 72 102 117 125 123 128 124 124 123 126 130 128 128 128 124 119 116 118 120 151 144 148 147 189 194 99 45 51 36 14 355 358 4 11 12 6
77 116 37 96 27 66 67 66 65 64 65 57 52 55 83 99 129 130 126 133 133 131 136 142 135 135 128 121 119 116 90 76 123 183 175 218 232 241 265 273 300 344 337 330 343 340 346 10 0
77 86 76 51 61 67 69 65 62 57 50 51 49 48 54 95 111 127 144 157 150 152 153 165 167 158 152 154 146 166 139 122 221 234 215 215 237 226 251 281 312 5 356 337 343 328 341 335 346
67 57 75 49 41 57 66 63 60 70 54 43 47 49 55 68 110 130 137 147 160 164 169 178 186 200 220 240 247 259 250 207 209 223 236 224 236 227 245 280 305 314 334 336 328 327 338 335 340
114 243 7 11 2 7 46 57 55 53 58 42 36 45 55 57 70 138 178 162 157 173 179 174 196 208 223 244 255 254 249 243 238 235 245 253 253 261 268 288 298 300 311 323 320 324 319 315 316
216 109 317 10 341 330 340 4 25 41 33 42 36 39 41 50 51 58 192 191 188 184 182 183 188 205 213 220 235 250 265 251 248 244 242 251 254 271 296 291 285 286 302 308 312 314 304 302 306
178 127 247 222 313 310 309 215 0 5 29 58 40 43 38 38 41 41 28 196 198 199 195 194 190 194 209 223 224 239 240 241 238 236 242 258 265 274 288 301 300 300 295 306 311 305 300 306 304
198 142 236 12 303 305 326 27 321 1 11 55 46 36 31 43 43 45 42 113 197 202 206 212 214 208 215 227 220 217 228 232 232 238 253 277 290 288 295 295 289 296 300 301 294 294 302 305 304
292 262 30 330 264 286 305 331 323 346 10 37 25 43 27 25 32 32 37 41 32 155 214 226 232 228 227 229 221 217 230 238 242 255 272 284 291 290 287 290 295 293 288 290 289 292 300 314 310
242 284 294 240 267 100 17 297 317 317 331 15 12 13 30 27 10 11 14 20 26 24 247 250 242 249 233 227 223 232 240 252 269 278 280 291 327 340 328 315 310 306 305 303 305 311 326 328 322
227 231 208 280 230 168 313 297 287 286 318 359 353 346 358 12 9 345 345 354 1 13 24 347 276 268 267 233 241 247 260 274 278 286 306 354 31 346 350 329 321 328 326 319 325 332 339 337 336
241 211 247 267 275 240 293 296 273 279 293 300 318 323 331 345 354 357 321 332 336 343 5 31 16 330 312 295 289 262 266 275 295 301 150 194 324 338 334 328 321 330 331 338 334 336 329 321 325
229 223 234 240 267 258 296 334 228 302 287 293 295 301 306 323 333 348 346 319 328 331 342 5 32 28 20 347 291 273 267 257 268 261 256 293 306 310 314 316 314 318 323 329 340 336 330 327 320
222 234 228 270 261 266 292 255 322 279 311 305 296 283 293 306 317 337 356 312 324 333 340 339 0 350 351 343 316 290 287 294 312 317 304 307 310 314 310 300 293 299 313 339 350 333 319 335 318
223 215 241 246 258 271 290 282 262 284 293 266 286 295 295 293 299 316 340 332 302 317 337 346 16 12 346 334 301 289 295 302 302 305 307 316 316 313 291 290 280 286 300 317 340 340 345 339 331
222 227 234 241 256 262 264 266 257 255 264 277 280 277 291 292 295 322 338 334 306 294 300 284 19 28 20 45 46 38 246 268 288 299 306 307 293 312 311 277 274 270 267 271 283 310 329 358 359
222 218 235 250 260 280 267 238 245 252 265 267 248 269 286 316 322 328 338 329 325 302 291 278 287 7 15 33 51 52 49 51 323 344 333 307 307 320 316 296 268 256 256 250 251 244 254 328 345
222 211 214 236 245 284 224 263 265 256 254 263 240 260 278 304 317 333 335 328 319 300 283 273 266 288 30 19 31 62 52 37 25 343 319 327 327 331 314 303 280 246 241 249 251 246 234 236 273
233 218 214 235 252 259 261 275 301 247 214 244 247 264 274 297 317 324 325 318 313 299 281 259 249 231 35 20 74 76 31 11 353 327 318 301 316 337 349 340 303 253 243 250 254 259 263 253 245
176 211 201 216 229 231 250 270 214 237 265 233 254 274 294 305 318 323 313 316 330 321 313 283 247 217 188 42 106 66 29 12 2 359 340 306 341 350 339 3 353 267 252 252 251 254 258 271 260
209 203 190 204 222 222 258 194 234 254 251 241 248 274 297 310 321 336 305 305 324 329 318 298 246 230 231 334 354 303 290 264 271 12 344 328 328 336 343 353 10 344 258 257 264 264 264 265 269
210 208 199 223 256 242 202 240 242 271 244 234 243 252 268 273 291 317 309 319 323 317 332 288 227 222 244 266 303 248 272 253 266 270 274 296 319 329 331 332 344 350 5 305 275 271 264 259 261
Height
5904 5902 5901 5899 5901 5904 5901 5900 5898 5898 5897 5896 5896 5896 5895 5895 5893 5896 5895 5895 5896 5897 5897 5898 5899 5898 5898 5899 5900 5901 5903 5904 5904 5905 5908 5907 5905 5906 5907 5905 5905 5904 5905 5904 5904 5903 5902 5901 5900
5908 5906 5904 5905 5911 5910 5904 5902 5902 5901 5899 5898 5898 5898 5898 5897 5897 5898 5898 5898 5900 5900 5901 5901 5901 5902 5901 5903 5904 5904 5905 5907 5907 5908 5910 5909 5907 5908 5910 5907 5906 5906 5906 5906 5906 5906 5904 5903 5903
5913 5911 5904 5912 5913 5909 5905 5904 5904 5903 5902 5901 5901 5901 5900 5900 5899 5900 5900 5900 5901 5903 5904 5904 5905 5905 5904 5905 5908 5907 5907 5910 5911 5910 5911 5913 5909 5912 5912 5911 5910 5909 5909 5909 5908 5907 5906 5905 5904
5915 5913 5912 5916 5913 5910 5908 5906 5906 5905 5905 5904 5904 5903 5903 5903 5902 5902 5903 5903 5904 5904 5907 5906 5908 5909 5909 5907 5909 5909 5909 5912 5913 5912 5914 5915 5913 5915 5915 5914 5913 5912 5912 5911 5910 5909 5908 5906 5906
5918 5917 5926 5919 5915 5913 5911 5909 5907 5907 5906 5906 5906 5906 5905 5904 5905 5906 5906 5906 5907 5908 5908 5909 5911 5909 5908 5910 5909 5913 5913 5914 5915 5914 5917 5916 5916 5916 5916 5917 5916 5916 5914 5914 5913 5911 5910 5909 5908
5919 5928 5932 5926 5920 5916 5914 5912 5910 5909 5908 5908 5908 5908 5907 5906 5907 5908 5908 5909 5909 5910 5911 5913 5912 5913 5913 5913 5914 5915 5916 5914 5917 5917 5919 5917 5917 5919 5918 5918 5919 5919 5917 5916 5915 5914 5913 5911 5910
5929 5937 5933 5932 5924 5920 5917 5914 5913 5912 5910 5909 5909 5909 5909 5908 5908 5909 5909 5910 5910 5912 5913 5914 5914 5914 5915 5916 5917 5918 5916 5916 5920 5920 5920 5919 5919 5920 5921 5920 5920 5920 5920 5918 5917 5916 5915 5913 5912
5932 5935 5937 5933 5927 5923 5921 5918 5915 5914 5913 5912 5911 5910 5911 5910 5910 5911 5912 5912 5913 5912 5913 5915 5916 5917 5918 5918 5918 5918 5918 5920 5922 5922 5921 5920 5921 5922 5922 5922 5921 5921 5921 5921 5920 5919 5917 5915 5914
5927 5937 5938 5935 5931 5926 5924 5920 5919 5917 5915 5914 5913 5912 5911 5911 5911 5912 5913 5914 5915 5916 5917 5918 5919 5919 5919 5920 5920 5920 5922 5923 5924 5923 5922 5923 5923 5923 5923 5923 5923 5923 5922 5921 5921 5919 5918 5917 5914
5937 5942 5938 5936 5935 5929 5926 5923 5922 5920 5918 5917 5915 5914 5914 5913 5912 5912 5913 5914 5915 5917 5918 5920 5920 5920 5920 5922 5923 5923 5923 5924 5923 5923 5924 5925 5925 5925 5924 5924 5924 5923 5922 5922 5921 5920 5919 5918 5916
5940 5943 5940 5936 5933 5931 5929 5926 5924 5921 5921 5920 5918 5916 5916 5915 5915 5914 5914 5915 5915 5916 5918 5920 5921 5922 5922 5922 5923 5925 5925 5925 5925 5925 5926 5926 5926 5926 5926 5925 5926 5925 5924 5924 5923 5921 5920 5919 5918
5944 5941 5939 5937 5935 5932 5931 5929 5927 5926 5925 5923 5921 5918 5917 5917 5917 5916 5915 5915 5916 5916 5918 5920 5921 5922 5923 5923 5924 5925 5925 5925 5926 5928 5928 5927 5927 5927 5927 5927 5927 5926 5926 5925 5924 5923 5922 5920 5918
5944 5944 5942 5938 5936 5934 5933 5932 5931 5929 5927 5925 5924 5922 5920 5919 5918 5917 5917 5917 5916 5916 5918 5919 5920 5921 5923 5924 5925 5926 5927 5926 5927 5927 5928 5928 5928 5929 5928 5927 5928 5927 5926 5925 5924 5923 5922 5921 5919
5940 5942 5940 5937 5935 5935 5936 5935 5935 5932 5930 5927 5926 5924 5923 5921 5919 5918 5918 5917 5917 5917 5918 5918 5919 5921 5922 5924 5924 5926 5926 5927 5927 5927 5927 5927 5928 5929 5929 5929 5928 5927 5927 5926 5924 5923 5923 5922 5920
5939 5940 5936 5935 5934 5936 5936 5933 5935 5933 5932 5930 5928 5926 5925 5924 5922 5920 5918 5918 5918 5918 5918 5919 5919 5920 5922 5923 5923 5924 5925 5926 5926 5927 5927 5928 5928 5929 5929 5929 5928 5927 5927 5926 5925 5924 5922 5921 5920
5940 5942 5934 5934 5936 5934 5938 5937 5936 5934 5932 5932 5930 5929 5927 5926 5926 5923 5921 5919 5919 5918 5918 5919 5920 5920 5921 5922 5922 5923 5924 5925 5926 5927 5928 5928 5929 5929 5929 5928 5929 5928 5928 5927 5926 5924 5922 5920 5919
5944 5935 5940 5941 5937 5935 5936 5936 5935 5934 5934 5933 5933 5931 5929 5927 5926 5924 5923 5921 5920 5919 5919 5919 5920 5920 5921 5921 5922 5923 5924 5925 5926 5928 5928 5928 5929 5929 5927 5927 5927 5927 5927 5926 5925 5924 5922 5920 5919
5939 5946 5945 5942 5939 5937 5939 5937 5936 5936 5935 5934 5933 5932 5931 5929 5928 5926 5924 5922 5921 5920 5920 5920 5920 5920 5920 5922 5923 5924 5924 5925 5927 5927 5928 5928 5928 5927 5926 5925 5925 5925 5924 5923 5923 5923 5922 5921 5919
5941 5947 5928 5941 5939 5939 5941 5940 5937 5936 5936 5935 5933 5932 5932 5931 5929 5928 5926 5924 5923 5921 5920 5920 5922 5922 5922 5923 5924 5924 5925 5926 5926 5927 5927 5928 5928 5926 5925 5926 5925 5924 5923 5922 5921 5922 5921 5921 5920
5940 5943 5947 5944 5940 5940 5941 5941 5941 5937 5937 5936 5934 5932 5932 5932 5930 5929 5927 5925 5924 5923 5922 5921 5922 5923 5924 5924 5925 5925 5925 5925 5925 5925 5926 5926 5926 5925 5923 5924 5923 5923 5921 5920 5920 5920 5920 5920 5919
5936 5943 5946 5941 5941 5940 5942 5943 5937 5938 5936 5937 5935 5933 5931 5931 5930 5928 5927 5926 5924 5923 5923 5923 5923 5924 5924 5924 5924 5924 5924 5924 5924 5925 5925 5925 5924 5924 5923 5922 5922 5921 5920 5920 5919 5919 5919 5919 5917
5934 5939 5941 5939 5939 5944 5942 5944 5944 5937 5937 5934 5933 5932 5932 5930 5930 5928 5927 5925 5925 5924 5924 5924 5923 5924 5924 5924 5925 5924 5924 5926 5926 5926 5926 5926 5924 5923 5921 5921 5920 5919 5919 5918 5917 5917 5918 5917 5915
5930 5936 5937 5937 5940 5941 5944 5944 5945 5942 5941 5937 5931 5929 5931 5929 5929 5929 5927 5926 5926 5925 5924 5924 5924 5925 5925 5925 5924 5924 5925 5926 5925 5925 5925 5924 5923 5923 5919 5919 5918 5917 5917 5916 5916 5915 5916 5915 5913
5926 5931 5930 5932 5935 5939 5941 5942 5942 5941 5936 5935 5932 5929 5930 5930 5929 5929 5928 5926 5925 5926 5925 5925 5925 5926 5926 5925 5923 5922 5922 5922 5922 5922 5922 5921 5918 5916 5909 5914 5914 5914 5913 5914 5913 5913 5914 5913 5912
5920 5926 5930 5934 5936 5937 5938 5937 5938 5935 5934 5928 5928 5929 5930 5930 5929 5927 5926 5925 5924 5923 5925 5926 5926 5926 5926 5925 5923 5921 5921 5920 5920 5920 5918 5917 5916 5915 5911 5909 5908 5909 5910 5910 5910 5910 5910 5911 5912
5916 5922 5928 5933 5935 5936 5932 5932 5934 5930 5928 5924 5926 5927 5928 5928 5927 5924 5923 5923 5923 5921 5921 5924 5925 5926 5926 5925 5922 5920 5920 5920 5919 5918 5917 5917 5916 5913 5906 5904 5902 5903 5904 5907 5907 5907 5906 5907 5909
5917 5917 5925 5930 5932 5933 5931 5928 5928 5925 5925 5923 5924 5925 5926 5926 5925 5923 5920 5920 5920 5920 5919 5920 5922 5924 5925 5924 5922 5920 5919 5919 5919 5917 5916 5916 5914 5911 5908 5901 5896 5897 5900 5903 5904 5906 5906 5905 5905
5911 5919 5924 5927 5929 5929 5929 5927 5927 5920 5922 5925 5924 5924 5923 5923 5922 5920 5919 5918 5918 5916 5915 5917 5919 5922 5923 5922 5921 5921 5919 5919 5918 5916 5914 5914 5913 5909 5906 5902 5895 5894 5897 5899 5901 5901 5902 5903 5903
5909 5914 5920 5926 5927 5928 5928 5925 5919 5920 5922 5921 5922 5923 5921 5920 5920 5918 5918 5918 5917 5915 5914 5914 5916 5920 5921 5921 5921 5919 5918 5916 5916 5916 5915 5914 5912 5909 5906 5903 5898 5896 5896 5897 5898 5898 5899 5899 5901
5910 5914 5918 5922 5923 5924 5924 5921 5917 5918 5919 5919 5920 5920 5920 5920 5919 5918 5917 5917 5916 5915 5913 5913 5914 5918 5918 5919 5919 5918 5916 5916 5915 5914 5913 5912 5911 5909 5907 5905 5902 5899 5898 5895 5893 5893 5894 5895 5896